Waarnemingen

Advertentie
Mijn weer
Kleine Brogel, België (6479): temperatuur & dauwpunt: 26.03.2020 10:00:00 - 01.04.2020 10:00:00 (CEST)Kleine Brogel, België (6479): windsnelheid & windstoten: 26.03.2020 10:00:00 - 01.04.2020 10:00:00 (CEST)Kleine Brogel, België (6479): windrichting: 26.03.2020 10:00:00 - 01.04.2020 10:00:00 (CEST)Kleine Brogel, België (6479): luchtdruk: 26.03.2020 10:00:00 - 01.04.2020 10:00:00 (CEST)Kleine Brogel, België (6479): zicht: 26.03.2020 10:00:00 - 01.04.2020 10:00:00 (CEST)
Datum & Tijd tt [°C] td [°C] ff [km/u] ff [kn] fx [km/u] fx [kn] dd ppp [hPa] vv [km]
01.04.2020 10:00:00 4,2 -3,0 4 2 7 4 N 1024,7 20
01.04.2020 09:00:00 0,9 -2,9 4 2 4 2 N 1024,7 19
01.04.2020 08:00:00 -2,7 -4,5 0 0 - - N 1025,0 18
01.04.2020 07:00:00 -3,5 -4,8 4 2 0 0 N 1025,2 14
01.04.2020 06:00:00 -2,8 -4,5 4 2 0 0 N 1025,4 18
01.04.2020 05:00:00 -2,6 -4,6 0 0 - - N 1025,7 20
01.04.2020 04:00:00 -1,5 -4,3 4 2 4 2 N 1026,5 20
01.04.2020 03:00:00 -1,2 -4,5 4 2 4 2 N 1027,0 20
01.04.2020 02:00:00 -0,6 -5,0 4 2 - - N 1027,2 20
01.04.2020 01:00:00 -0,5 -5,2 4 2 7 4 N 1027,7 20
01.04.2020 00:00:00 0,6 -4,6 4 2 0 0 N 1028,0 20
31.03.2020 23:00:00 1,7 -5,9 4 2 - - N 1028,0 20
31.03.2020 22:00:00 2,9 -5,9 4 2 7 4 N 1028,5 20
31.03.2020 21:00:00 5,2 -6,1 7 4 14 8 NO 1028,9 20
31.03.2020 20:00:00 6,5 -6,5 11 6 - - NO 1028,7 20
31.03.2020 19:00:00 8,1 -7,0 11 6 25 14 NNO 1028,7 20
31.03.2020 18:00:00 9,2 -6,1 14 8 29 16 NO 1028,9 20
31.03.2020 17:00:00 9,3 -6,1 14 8 - - ONO 1029,2 20
31.03.2020 16:00:00 10,0 -5,9 14 8 29 16 NNO 1029,7 20
31.03.2020 15:00:00 9,3 -5,2 18 10 29 16 NO 1030,4 19
31.03.2020 14:00:00 7,6 -6,1 14 8 - - ONO 1030,7 20
31.03.2020 13:00:00 6,8 -4,5 18 10 32 18 O 1030,9 20
31.03.2020 12:00:00 6,8 -1,3 18 10 29 16 ONO 1031,5 19
31.03.2020 11:00:00 3,7 0,1 14 8 - - NO 1032,0 10
31.03.2020 10:00:00 1,6 -0,2 15 8 25 14 ONO 1031,7 10
31.03.2020 09:00:00 1,1 0,0 18 10 29 16 NO 1031,4 5
31.03.2020 08:00:00 1,0 0,4 14 8 - - NO 1030,9 3,5
31.03.2020 07:00:00 -0,2 -0,6 8 4 11 6 NNO 1030,2 8
31.03.2020 06:00:00 0,4 0,0 7 4 11 6 NO 1029,7 9
31.03.2020 05:00:00 1,0 0,3 7 4 - - NO 1029,2 14
31.03.2020 04:00:00 1,3 0,7 7 4 11 6 NNO 1029,2 17
31.03.2020 03:00:00 1,8 1,1 7 4 11 6 NNO 1029,0 18
31.03.2020 02:00:00 2,4 1,6 4 2 - - N 1028,7 19
31.03.2020 01:00:00 3,9 2,4 4 2 14 8 N 1028,5 20
31.03.2020 00:00:00 4,5 2,6 7 4 14 8 NNW 1028,5 20
30.03.2020 23:00:00 4,3 1,8 8 4 - - NNW 1028,4 10
30.03.2020 22:00:00 6,0 1,4 11 6 18 10 NNW 1028,0 20
30.03.2020 21:00:00 6,7 1,3 7 4 18 10 NNW 1027,7 20
30.03.2020 20:00:00 6,6 1,6 7 4 - - NW 1027,7 20
30.03.2020 19:00:00 7,9 1,2 11 6 22 12 WNW 1027,5 20
30.03.2020 18:00:00 8,6 -0,2 11 6 25 14 NW 1027,7 20
30.03.2020 17:00:00 8,2 -0,6 11 6 - - WNW 1028,5 20
30.03.2020 16:00:00 7,4 -1,1 7 4 18 10 NW 1029,2 20
30.03.2020 15:00:00 7,3 -1,8 7 4 18 10 WNW 1030,0 20
30.03.2020 14:00:00 7,0 -3,5 4 2 - - N 1030,7 20
30.03.2020 13:00:00 6,2 -4,4 4 2 14 8 N 1031,2 20
30.03.2020 12:00:00 5,6 -5,3 7 4 14 8 WNW 1032,0 20
30.03.2020 11:00:00 4,5 -6,3 4 2 - - N 1032,7 19
30.03.2020 10:00:00 3,0 -5,2 4 2 7 4 N 1033,2 20
30.03.2020 09:00:00 0,0 -5,3 4 2 11 6 N 1033,4 20
30.03.2020 08:00:00 -2,7 -5,8 4 2 - - N 1033,5 20
30.03.2020 07:00:00 -3,8 -6,9 4 2 7 4 N 1033,5 20
30.03.2020 06:00:00 -2,7 -6,7 4 2 11 6 N 1033,7 20
30.03.2020 05:00:00 -2,3 -6,9 7 4 - - N 1034,2 20
30.03.2020 04:00:00 -2,1 -7,4 4 2 14 8 N 1034,5 20
30.03.2020 03:00:00 -1,0 -7,9 7 4 14 8 N 1034,9 20
30.03.2020 02:00:00 -0,7 -8,8 7 4 - - NNO 1035,0 20
30.03.2020 01:00:00 -0,5 -10,3 4 2 25 14 N 1035,2 20
30.03.2020 00:00:00 1,0 -10,9 18 10 32 18 NNO 1035,0 20
29.03.2020 23:00:00 1,8 -10,6 22 12 - - NNO 1034,9 20
29.03.2020 22:00:00 2,6 -10,2 25 14 43 23 NNO 1034,4 20
29.03.2020 21:00:00 4,1 -8,6 22 12 43 23 NNO 1033,5 20
29.03.2020 20:00:00 4,6 -7,3 25 14 - - NNO 1032,5 20
29.03.2020 19:00:00 5,0 -5,8 25 14 47 25 NNO 1031,9 20
29.03.2020 18:00:00 5,5 -5,2 32 18 58 31 NNO 1031,0 20
29.03.2020 17:00:00 5,8 -5,1 32 18 - - NNO 1030,5 20
29.03.2020 16:00:00 5,7 -5,0 32 18 54 29 NNO 1030,4 20
29.03.2020 15:00:00 6,2 -5,3 32 18 58 31 NNO 1030,2 20
29.03.2020 14:00:00 6,8 -5,0 36 19 - - NNO 1030,0 20
29.03.2020 13:00:00 6,1 -4,3 32 18 54 29 NNO 1029,7 19
29.03.2020 12:00:00 6,9 -4,5 32 18 65 35 NNO 1029,2 20
29.03.2020 11:00:00 6,4 -3,7 29 16 - - NNO 1029,2 19
29.03.2020 10:00:00 6,3 -2,5 29 16 47 25 NNO 1028,7 19
29.03.2020 09:00:00 4,8 -0,6 18 10 32 18 N 1028,2 20
29.03.2020 08:00:00 2,5 0,0 7 4 - - N 1027,7 18
29.03.2020 07:00:00 2,5 0,0 11 6 22 12 NNW 1027,5 19
29.03.2020 06:00:00 3,0 -0,3 7 4 14 8 NNW 1027,2 19
29.03.2020 05:00:00 2,2 -1,5 7 4 - - NW 1027,4 20
29.03.2020 04:00:00 2,7 -2,0 4 2 11 6 N 1027,2 20
29.03.2020 03:00:00 2,4 -2,5 4 2 22 12 N 1027,9 20
29.03.2020 02:00:00 3,7 -2,7 14 8 - - N 1028,0 20
29.03.2020 01:00:00 4,9 -0,4 18 10 32 18 N 1027,9 20
29.03.2020 00:00:00 5,1 -0,4 14 8 32 18 N 1027,5 20
28.03.2020 23:00:00 6,1 -0,1 14 8 - - N 1027,0 20
28.03.2020 22:00:00 7,5 0,7 18 10 36 19 N 1026,0 20
28.03.2020 21:00:00 8,5 1,1 18 10 36 19 N 1025,5 20
28.03.2020 20:00:00 9,8 1,1 18 10 - - N 1024,2 20
28.03.2020 19:00:00 12,0 -1,8 22 12 36 19 NNO 1023,2 20
28.03.2020 18:00:00 13,3 -1,8 22 12 36 19 NNO 1022,8 19
28.03.2020 17:00:00 14,0 0,0 22 12 - - NNO 1022,7 20
28.03.2020 16:00:00 14,0 0,0 22 12 36 19 N 1023,1 18
28.03.2020 15:00:00 14,1 -0,9 25 14 43 23 NNO 1023,2 16
28.03.2020 14:00:00 14,4 -1,3 25 14 - - NO 1023,2 17
28.03.2020 13:00:00 13,3 0,0 25 14 36 19 NO 1023,2 14
28.03.2020 12:00:00 11,7 0,4 25 14 32 18 NO 1023,1 13
28.03.2020 11:00:00 9,6 1,1 14 8 - - NNO 1023,0 12
28.03.2020 10:00:00 7,9 1,0 18 10 25 14 NNO 1022,7 7
28.03.2020 09:00:00 6,0 1,1 11 6 18 10 NNO 1022,1 12
28.03.2020 08:00:00 4,0 0,7 11 6 - - NNO 1021,7 9
28.03.2020 07:00:00 4,1 0,4 7 4 14 8 NNO 1021,1 11
28.03.2020 06:00:00 4,7 0,4 7 4 14 8 NNO 1020,7 12
28.03.2020 05:00:00 5,0 0,5 8 4 - - N 1020,6 10
28.03.2020 04:00:00 5,3 0,6 5 3 11 6 N 1020,5 7
28.03.2020 03:00:00 6,4 0,7 7 4 11 6 NNO 1020,3 14
28.03.2020 02:00:00 7,4 0,7 7 4 - - NNO 1020,3 15
28.03.2020 01:00:00 8,5 0,7 11 6 11 6 NNO 1020,2 15
28.03.2020 00:00:00 8,7 0,8 7 4 14 8 NNO 1020,2 15
27.03.2020 23:00:00 10,1 0,7 7 4 - - NNO 1019,8 15
27.03.2020 22:00:00 10,0 0,6 7 4 11 6 N 1019,5 17
27.03.2020 21:00:00 10,9 0,7 7 4 14 8 N 1019,2 18
27.03.2020 20:00:00 12,9 0,2 7 4 - - NNO 1018,6 17
27.03.2020 19:00:00 14,5 0,2 11 6 29 16 ONO 1018,1 18
27.03.2020 18:00:00 15,0 -0,2 22 12 32 18 NO 1018,1 20
27.03.2020 17:00:00 15,2 -0,2 18 10 - - NO 1018,2 20
27.03.2020 16:00:00 15,0 -0,4 18 10 36 19 NO 1018,6 20
27.03.2020 15:00:00 13,6 -1,0 22 12 32 18 NO 1018,8 19
27.03.2020 14:00:00 13,1 -0,5 14 8 - - NO 1019,2 18
27.03.2020 13:00:00 11,1 -1,6 14 8 25 14 ONO 1019,7 17
27.03.2020 12:00:00 9,2 -1,7 14 8 22 12 NO 1020,6 16
27.03.2020 11:00:00 7,8 -1,6 14 8 - - NO 1020,7 20
27.03.2020 10:00:00 5,8 -2,6 22 12 32 18 NO 1020,6 15
27.03.2020 09:00:00 3,3 -3,1 14 8 25 14 NNO 1020,7 17
27.03.2020 08:00:00 1,1 -3,3 7 4 - - NNO 1021,1 15
27.03.2020 07:00:00 0,2 -3,4 4 2 11 6 N 1020,7 15
27.03.2020 06:00:00 1,7 -3,2 7 4 11 6 NNO 1020,7 18
27.03.2020 05:00:00 1,7 -3,0 4 2 - - N 1021,0 16
27.03.2020 04:00:00 2,7 -3,0 7 4 14 8 NNO 1021,1 19
27.03.2020 03:00:00 3,6 -3,0 11 6 14 8 NNO 1021,2 20
27.03.2020 02:00:00 3,9 -3,0 11 6 - - NNO 1021,6 19
27.03.2020 01:00:00 4,9 -3,0 7 4 18 10 NNO 1021,7 19
27.03.2020 00:00:00 5,3 -3,3 11 6 22 12 NO 1021,7 20
26.03.2020 23:00:00 6,3 -3,5 14 8 - - NO 1021,7 20
26.03.2020 22:00:00 6,8 -3,8 11 6 22 12 NO 1021,7 20
26.03.2020 21:00:00 7,7 -3,8 11 6 14 8 NO 1021,6 20
26.03.2020 20:00:00 9,0 -4,6 11 6 - - NO 1021,1 20
26.03.2020 19:00:00 10,3 -5,4 18 10 32 18 ONO 1020,8 20
26.03.2020 18:00:00 11,4 -5,7 22 12 36 19 ONO 1020,7 20
26.03.2020 17:00:00 10,9 -7,5 18 10 - - ONO 1020,8 20
26.03.2020 16:00:00 10,3 -7,6 22 12 32 18 ONO 1021,2 20
26.03.2020 15:00:00 10,9 -6,8 18 10 32 18 ONO 1021,6 20
26.03.2020 14:00:00 9,9 -6,6 22 12 - - ONO 1022,0 19
26.03.2020 13:00:00 9,0 -7,0 18 10 32 18 ONO 1022,2 19
26.03.2020 12:00:00 7,8 -7,5 22 12 32 18 ONO 1022,7 20
26.03.2020 11:00:00 6,6 -7,6 18 10 - - O 1023,1 19
26.03.2020 10:00:00 - - - - - - - - -

tt = temperatuur
td = dauwpunt
ff = windsnelheid
fx = windstoten
dd = windrichting
ppp = luchtdruk
vv = zicht

Weerstations in de omgeving